GFSNGP_500_rhum_087.txt.gz
RH
10 11 14 9 8 71 70 94 100 83 73 88 98 98 98 98 83 98 97 93 96 100 92 98 96 97 97 97 97 97 96 97 96 93 94 90 67 64 51 32 32 37 37 39
8 8 6 6 4 9 58 61 95 82 75 65 96 94 98 98 99 100 98 96 86 100 80 83 85 94 95 100 93 87 79 87 99 97 99 97 95 95 98 98 91 70 53 50
10 8 8 9 7 5 12 80 93 98 100 82 81 98 95 99 97 98 99 98 99 100 80 96 84 81 85 89 90 80 75 74 78 94 97 97 95 98 96 97 95 91 93 94
14 8 11 10 12 10 15 71 67 92 100 100 88 97 99 100 99 98 98 99 98 99 99 97 82 79 88 96 87 86 88 93 93 87 75 79 86 83 100 98 98 97 97 97
12 10 13 15 11 9 14 87 83 82 94 100 100 97 99 98 98 99 99 97 98 99 98 98 99 100 91 93 92 93 96 87 84 89 83 85 77 79 81 97 98 99 99 98
7 8 11 9 17 12 8 44 74 80 67 96 99 100 98 99 98 99 100 97 100 98 98 99 99 98 98 96 95 91 83 67 65 56 44 42 70 74 62 54 64 92 97 97
9 6 5 5 15 16 34 55 83 63 84 93 100 94 98 98 99 100 98 100 99 98 97 100 98 97 97 87 77 78 68 61 64 64 56 41 16 13 26 36 42 48 60 70
50 41 16 15 12 12 37 87 100 92 92 100 100 98 96 77 81 96 100 100 100 100 100 98 93 94 93 75 63 64 55 44 32 23 16 12 11 11 13 14 15 13 15 16
69 70 64 53 14 23 22 57 88 85 94 100 100 100 81 31 19 29 73 83 93 95 99 95 87 91 84 70 51 36 18 10 8 10 11 10 10 9 8 8 7 7 6 6
100 78 68 55 26 17 17 52 73 98 99 98 100 98 100 100 93 94 100 92 73 28 45 58 46 26 16 22 27 20 13 10 10 10 10 9 8 7 6 6 5 5 5 4
100 78 95 92 93 100 100 65 57 88 91 95 97 100 100 100 92 97 99 100 100 100 100 58 32 25 21 22 20 16 13 12 12 12 11 10 9 8 8 7 7 6 5 5
100 100 100 100 100 100 100 100 99 100 91 86 87 100 100 100 100 100 100 99 100 96 85 55 36 26 22 20 18 17 16 15 14 13 12 10 10 9 9 9 8 8 6 5
100 100 100 100 100 100 100 100 100 100 100 100 100 100 100 100 100 95 91 87 71 66 68 68 52 38 31 27 23 21 19 18 16 14 13 14 14 13 12 12 11 11 8 6
99 100 100 100 100 97 98 99 100 100 100 100 100 99 100 99 92 90 80 78 80 69 52 52 50 44 37 31 27 24 22 21 19 18 18 18 18 17 18 18 16 14 10 10
97 89 87 84 80 67 65 67 65 86 88 94 97 93 97 96 90 79 81 79 73 70 64 62 56 50 41 34 30 28 26 26 26 27 28 30 28 26 24 21 19 15 14 18
67 64 81 77 67 66 62 59 65 62 57 55 65 74 59 54 52 50 49 48 46 48 47 47 48 47 46 44 42 38 39 38 39 40 39 36 34 31 28 23 21 20 32 50
46 28 40 52 63 67 64 62 66 65 61 58 54 56 60 54 51 53 53 55 55 53 48 48 51 56 57 57 56 52 51 50 49 48 40 34 28 28 32 39 37 52 88 94
42 42 49 53 59 65 67 72 71 70 66 64 67 67 69 69 65 60 49 43 38 35 33 29 27 26 25 24 23 21 21 20 22 27 32 41 72 89 96 94 91 89 92 91
69 68 68 70 73 72 69 67 66 67 68 67 65 61 52 45 38 32 27 25 31 34 35 35 37 37 34 33 32 34 37 47 55 54 69 85 81 88 83 80 90 100 100 100
40 38 39 38 33 33 32 30 28 27 26 28 31 35 34 32 34 37 42 52 63 69 71 67 58 54 48 47 48 60 63 64 63 70 85 96 100 100 99 98 99 100 99 100
42 49 64 69 68 72 77 79 78 78 78 80 82 85 88 80 77 78 71 67 72 80 88 90 83 78 79 78 76 78 85 88 93 95 97 100 100 100 100 100 100 100 100 100
87 72 34 26 26 26 28 33 47 65 82 92 96 97 96 95 94 95 96 99 99 99 100 99 96 94 92 92 95 99 98 98 100 100 100 100 100 100 100 100 100 100 100 100
46 32 30 32 33 33 32 31 31 30 30 31 32 34 37 40 46 57 72 86 93 97 100 100 100 100 100 100 100 100 100 100 100 100 100 100 100 100 100 100 100 100 100 98
36 36 36 36 36 36 36 36 35 35 35 34 33 32 29 26 26 28 31 32 32 32 33 47 71 90 98 100 100 100 100 100 100 100 99 96 95 96 96 95 94 81 61 37
39 39 38 38 38 37 37 36 34 31 25 20 16 13 11 13 15 18 24 29 33 36 38 38 38 37 36 42 60 82 95 97 98 98 92 81 68 47 26 18 15 15 16 16
44 43 43 41 31 20 13 12 11 10 10 10 10 9 9 10 10 12 14 17 21 25 28 29 30 31 30 27 25 24 22 20 19 18 18 17 17 18 20 21 23 24 24 22
44 28 15 12 11 10 10 9 9 10 11 12 12 12 13 14 15 16 17 18 19 20 20 20 20 19 19 18 18 17 17 18 19 22 24 25 25 26 30 32 30 28 24 20

GFSNGP_500_rhum_093.txt.gz
RH
82 79 71 59 42 38 32 25 13 67 65 40 48 46 46 66 72 95 96 100 91 98 92 98 98 99 98 98 77 79 92 96 94 63 36 40 49 56 60 56 55 60 60 33
82 78 76 50 36 28 26 22 13 9 7 28 48 74 73 78 82 98 97 87 98 98 96 96 96 97 97 100 99 95 96 97 98 97 90 77 77 94 92 95 97 98 93 98
97 86 61 33 21 18 13 11 7 5 6 24 77 96 100 91 95 91 100 99 92 98 90 92 86 94 97 98 95 92 94 98 97 98 97 97 98 97 98 99 98 100 96 89
46 33 21 17 16 14 13 10 8 9 7 15 54 100 98 100 99 97 96 99 98 98 98 94 91 100 97 98 97 96 98 95 98 97 97 96 96 93 77 75 84 86 76 77
96 88 44 26 21 17 16 15 14 12 11 16 24 82 99 100 100 99 97 99 97 96 98 98 97 98 98 98 96 99 98 96 98 100 96 99 93 90 80 82 77 70 71 68
71 73 57 35 26 25 25 16 18 17 14 12 26 50 98 100 100 100 99 100 99 98 98 98 99 99 98 98 97 100 98 97 99 100 93 94 99 94 91 88 90 93 74 63
68 50 24 16 17 15 20 22 20 18 19 17 32 68 66 99 100 99 100 100 96 97 97 97 97 98 98 99 98 100 96 94 100 98 98 96 93 99 99 94 88 84 70 54
39 28 15 20 16 20 21 18 15 11 10 12 20 88 77 88 99 96 97 99 100 95 97 97 96 98 98 98 98 98 99 100 96 100 97 98 99 99 100 99 93 95 94 68
26 16 16 15 13 12 10 7 8 7 8 7 15 40 96 100 100 100 100 98 100 97 96 98 96 96 96 96 99 100 96 100 99 96 96 99 98 97 96 80 62 46 36 24
14 21 64 60 56 41 42 31 29 27 16 23 64 94 100 100 100 100 100 100 97 100 96 90 75 74 89 95 96 92 91 96 97 94 92 85 80 62 46 42 39 28 19 15
56 56 83 86 92 68 45 59 56 43 62 53 100 98 100 100 100 100 100 100 96 99 98 91 98 97 87 73 71 71 72 56 55 79 61 48 34 23 22 19 18 15 14 13
94 68 65 89 84 77 68 83 94 74 72 53 59 100 100 100 100 100 99 98 97 88 85 68 81 95 100 95 84 76 72 67 64 59 42 29 24 22 21 20 19 18 18 18
100 91 95 84 83 83 100 100 100 77 79 97 81 68 55 70 82 76 86 83 100 95 97 92 95 88 95 92 79 70 66 62 59 55 52 49 45 42 40 38 35 32 29 27
100 100 100 100 98 100 100 98 91 87 75 78 90 90 78 64 58 67 68 62 68 80 76 79 82 78 77 70 62 56 56 54 50 48 45 41 40 42 41 38 35 30 23 21
100 100 96 80 75 72 68 66 65 66 62 59 56 59 61 64 66 74 71 69 78 88 86 82 74 69 62 58 52 42 39 36 33 32 28 26 24 23 22 23 23 25 25 28
95 94 94 81 64 52 45 48 53 54 55 52 49 50 51 52 49 46 44 42 42 46 49 43 40 41 40 38 34 31 30 30 32 32 30 27 27 30 31 31 31 30 28 24
78 83 67 60 56 55 62 65 66 62 61 58 58 60 57 55 59 58 52 46 43 39 38 36 38 39 34 32 33 32 37 40 40 38 34 31 29 27 24 22 20 18 18 18
68 56 51 51 72 74 70 60 51 47 46 49 50 50 52 55 62 65 65 64 62 61 58 58 56 52 49 48 45 41 39 36 32 29 28 26 25 25 25 27 26 28 32 30
59 67 78 81 74 60 52 45 37 31 29 35 42 43 40 39 38 38 38 37 36 34 35 36 37 36 34 34 35 36 35 37 40 39 40 45 54 57 61 62 58 54 52 54
76 69 71 69 56 43 39 50 53 67 73 68 54 40 34 32 32 36 41 46 54 61 66 71 75 77 78 80 78 78 80 78 79 81 83 83 81 83 84 87 92 91 86 86
69 60 51 45 62 90 100 93 74 50 40 38 36 35 34 34 34 34 34 33 31 31 31 31 32 34 38 44 51 59 66 73 80 87 94 98 98 99 100 100 100 100 99 97
89 98 100 92 75 46 36 35 37 39 40 40 40 41 41 40 39 38 38 37 36 36 35 35 34 34 33 33 32 32 31 31 30 30 32 34 38 44 47 57 70 81 88 93
56 38 34 36 41 44 46 46 47 47 47 46 45 43 40 38 36 35 32 30 28 27 26 24 23 21 20 19 19 18 17 17 18 20 22 26 30 34 36 38 40 47 58 68
43 47 51 53 54 55 54 52 48 44 40 36 32 28 24 20 18 16 15 14 13 12 11 11 11 11 11 11 11 11 11 12 14 18 22 26 30 34 38 39 39 38 38 38
52 52 52 53 52 51 47 40 33 26 20 16 14 12 11 11 10 9 9 8 8 9 9 9 10 10 10 11 11 11 12 13 14 14 16 18 20 20 22 23 22 22 21 21
53 56 56 54 45 31 22 17 15 13 11 10 9 8 8 9 10 10 11 12 12 13 15 16 16 16 16 16 17 18 19 20 20 20 21 21 21 21 21 22 22 23 24 25
56 58 48 30 21 18 15 13 11 10 10 12 14 16 16 16 15 15 15 17 20 21 20 19 18 18 18 18 18 18 19 20 21 22 23 25 28 32 35 37 38 38 38 37

GFSNGP_500_rhum_096.txt.gz
RH
99 88 73 61 43 26 34 36 33 34 21 42 53 33 35 34 35 45 51 77 65 63 80 43 50 78 97 98 95 91 73 77 78 75 78 52 25 30 25 22 23 21 22 23
90 81 83 77 50 51 48 46 46 25 18 23 17 26 38 46 83 96 82 93 98 90 96 90 56 96 100 96 92 95 89 94 98 92 87 83 62 25 30 32 36 43 49 52
97 91 85 75 68 61 42 31 25 18 10 5 8 25 61 79 97 94 96 99 98 99 94 84 50 59 86 96 100 84 97 98 97 94 99 100 95 74 32 34 53 70 97 91
94 100 100 72 54 34 20 14 12 11 8 8 8 11 65 92 96 97 98 100 98 96 97 93 66 65 78 98 98 95 98 98 98 98 96 97 97 97 97 90 95 96 92 93
62 56 63 49 22 18 17 17 16 14 12 11 10 10 25 85 97 100 100 98 98 97 97 98 98 98 97 98 98 95 92 99 97 95 90 88 98 97 97 96 98 94 82 80
60 87 93 87 64 48 24 20 18 16 15 15 12 11 19 51 87 100 100 99 100 95 92 96 100 99 99 97 91 96 98 98 93 96 94 98 99 98 100 98 97 96 85 78
79 97 78 74 73 65 45 33 29 24 21 18 18 16 21 39 48 88 97 99 100 100 100 96 95 98 98 99 99 98 97 96 97 97 96 98 99 96 98 98 98 92 89 82
89 80 60 68 61 41 32 27 25 21 19 17 15 13 15 98 100 92 84 100 100 99 98 98 96 97 98 98 98 97 97 98 98 95 100 96 98 100 96 91 93 96 98 98
54 39 39 40 31 26 23 19 17 18 17 16 15 11 9 33 96 100 100 100 94 91 88 92 99 95 97 98 97 98 98 98 98 98 98 99 98 98 97 97 98 100 96 100
39 28 16 12 13 11 11 12 10 14 17 12 9 7 7 8 20 31 80 99 97 92 86 83 96 100 98 99 98 97 97 98 98 100 99 97 98 98 100 100 98 96 97 95
22 15 42 59 52 44 53 43 36 33 28 22 18 19 16 50 96 100 100 100 93 90 94 90 89 95 89 90 88 85 87 94 95 91 95 96 97 98 100 97 97 99 96 86
30 66 56 67 72 87 74 54 46 55 52 49 44 33 63 100 100 100 100 100 100 98 88 85 83 78 78 67 59 71 86 84 82 82 81 74 62 47 35 38 41 37 26 23
96 94 81 72 85 86 94 68 61 77 93 67 49 46 67 49 51 90 96 96 96 95 86 82 75 70 66 68 72 69 66 69 78 73 68 64 60 59 56 53 50 47 44 42
100 100 100 100 100 100 98 98 93 84 73 76 67 56 49 48 62 71 63 53 57 63 65 64 61 75 78 75 76 78 74 73 69 60 54 51 50 48 44 40 36 32 30 28
100 100 100 100 100 99 96 79 71 58 51 57 65 60 54 48 53 49 49 49 53 60 58 66 73 84 83 80 78 73 65 57 50 45 41 38 36 34 32 30 28 27 25 23
86 100 100 100 96 81 68 59 57 48 43 47 49 48 46 42 44 52 55 48 43 40 39 38 38 38 42 42 41 39 39 39 36 35 31 28 28 25 25 25 26 26 25 23
55 68 76 81 89 84 71 59 52 48 45 47 39 39 43 50 49 46 45 45 44 40 36 33 33 31 29 30 30 29 29 30 31 34 39 37 34 34 33 32 30 28 25 23
54 47 56 67 65 53 47 44 51 66 64 58 53 49 48 49 49 50 49 45 47 54 53 50 46 44 42 41 43 45 46 44 43 44 44 42 39 36 34 31 28 27 25 24
69 61 57 52 52 59 66 68 74 68 52 44 39 36 41 48 51 48 47 46 44 44 44 42 39 36 35 35 35 35 34 32 31 31 30 31 31 32 36 36 39 44 52 54
100 93 88 83 76 73 71 64 54 50 64 82 92 90 88 76 66 62 56 45 39 33 32 32 32 32 33 36 40 46 50 54 60 65 71 72 73 78 81 81 82 83 82 80
75 64 62 61 64 70 80 88 92 89 70 50 40 37 37 38 39 41 41 42 41 41 40 39 38 36 36 35 34 34 33 32 31 31 30 30 30 30 29 29 28 28 28 28
91 92 88 73 57 43 39 40 44 47 50 51 52 52 51 50 48 46 44 42 40 38 36 34 33 32 31 30 29 28 28 28 27 26 26 26 25 25 24 23 23 23 23 24
41 43 46 49 50 50 52 54 55 55 54 51 47 44 40 37 34 31 29 26 24 22 21 20 19 19 19 18 17 16 15 14 13 13 13 12 12 12 12 11 11 13 14 18
52 52 52 53 56 60 60 57 54 49 42 34 27 22 18 16 15 14 14 13 13 12 12 11 11 10 10 9 9 9 9 9 9 9 10 10 10 10 10 11 11 12 14 16
51 50 49 51 54 56 55 48 38 28 21 17 16 15 14 12 11 10 9 9 9 9 9 9 9 9 9 9 9 10 10 11 11 11 12 12 13 14 15 16 17 17 18 19
49 50 55 57 57 47 36 26 21 19 18 16 13 11 10 11 11 12 14 15 16 15 15 15 15 16 17 18 18 18 17 17 16 16 17 17 18 18 18 19 20 20 21 22
60 63 61 49 36 26 23 22 20 16 15 14 14 16 18 18 18 19 20 20 18 18 18 20 22 23 23 22 21 20 19 18 18 18 18 21 24 26 28 32 36 39 41 44

GFSNGP_500_rhum_102.txt.gz
RH
100 100 99 100 100 100 99 99 100 90 91 98 84 32 24 37 41 32 40 34 32 28 19 17 22 30 32 31 20 18 12 24 28 23 28 62 86 83 70 88 61 26 23 15
100 100 100 98 100 99 100 100 98 98 100 85 66 39 15 29 31 25 50 55 66 53 43 29 29 40 49 28 33 30 22 30 55 67 81 86 94 84 68 98 94 57 31 22
99 99 100 99 100 99 83 69 64 61 64 65 38 20 8 6 10 27 54 59 73 73 69 62 52 54 69 53 32 39 36 40 70 85 94 99 100 84 82 100 98 98 77 36
100 100 99 99 98 100 84 90 84 71 47 37 24 14 7 8 11 12 47 70 83 81 84 81 77 89 92 97 71 49 50 45 83 100 99 100 100 91 88 99 97 98 91 85
100 100 95 99 96 86 82 92 83 50 20 14 10 9 9 10 12 14 13 40 63 76 77 82 85 85 86 98 100 72 68 62 87 100 99 100 99 85 90 84 96 98 95 95
100 100 100 99 94 86 66 44 33 23 16 15 15 14 13 12 12 14 17 15 22 38 54 77 82 89 94 97 98 98 83 96 82 83 82 96 100 98 89 85 92 98 97 95
82 70 82 79 77 72 62 55 48 34 27 23 18 18 17 17 16 17 21 29 67 66 55 59 61 81 98 99 96 99 100 92 80 84 79 73 96 97 100 91 80 97 85 98
55 50 46 65 72 74 65 65 66 63 55 46 34 28 24 21 18 19 18 35 85 81 67 65 51 38 66 97 98 99 97 99 99 73 100 98 94 98 98 97 92 98 97 97
39 38 32 33 62 65 64 61 52 53 44 36 33 31 25 20 18 18 17 15 35 57 81 72 43 25 14 32 79 84 98 100 98 99 100 99 99 99 99 98 97 97 98 98
36 34 34 34 45 60 61 57 51 42 35 29 24 22 20 18 15 13 11 9 9 10 26 23 14 20 31 55 53 53 71 88 97 100 100 97 99 99 99 99 98 99 99 98
42 43 43 42 42 41 32 29 26 27 25 21 18 19 19 17 14 13 12 11 13 13 28 51 54 40 62 94 88 80 73 70 74 87 94 98 98 99 98 98 99 100 99 98
48 46 43 38 31 27 35 46 52 53 52 48 46 41 36 32 28 25 22 17 14 21 25 50 94 100 100 100 100 96 89 80 75 74 80 89 94 93 93 93 96 96 96 98
43 43 34 25 31 30 56 75 88 94 81 63 59 58 56 49 47 45 39 33 26 23 24 34 40 36 62 87 95 92 85 83 78 70 63 62 63 62 60 58 57 59 75 93
33 29 31 33 57 67 80 92 94 99 100 98 89 75 68 63 58 50 45 41 35 30 26 30 40 46 44 55 56 61 65 67 62 57 57 52 61 74 68 68 74 71 69 66
40 57 83 87 95 99 100 100 100 100 100 100 100 96 84 70 63 50 45 41 43 40 35 34 39 46 55 60 60 69 81 82 77 71 76 70 67 67 85 93 87 81 74 67
57 71 81 100 100 100 100 98 92 85 82 84 82 76 70 52 48 45 43 40 36 38 42 44 44 43 44 47 52 54 67 80 80 80 83 90 96 97 99 97 86 62 46 38
49 60 71 85 93 94 91 82 80 73 67 66 72 74 72 66 60 58 52 43 37 33 35 37 30 26 30 35 40 42 44 41 41 45 52 58 66 70 68 66 64 58 54 48
70 61 56 49 46 49 53 60 60 52 44 48 53 56 54 49 47 46 43 40 42 42 40 45 47 48 46 42 40 41 44 49 50 48 44 41 44 45 46 44 43 44 41 37
93 76 70 64 58 52 50 47 42 38 42 50 53 50 50 53 55 55 55 56 55 54 52 48 46 43 40 37 35 33 33 34 38 43 43 42 39 36 34 33 33 33 34 34
88 84 78 72 68 68 65 64 64 63 61 60 61 61 60 57 56 54 52 51 51 51 50 50 49 50 53 54 56 56 58 55 50 47 46 45 45 43 42 38 36 34 32 31
78 60 53 53 58 59 56 46 41 39 39 39 39 41 41 42 43 44 45 46 50 48 48 50 50 49 49 48 48 47 47 46 45 44 43 42 41 41 41 40 39 38 38 36
67 60 48 43 43 43 40 36 35 36 36 37 38 38 39 42 45 46 46 44 44 45 45 45 45 44 43 42 41 40 40 38 37 36 36 36 35 35 35 34 33 32 31 29
47 48 47 44 41 41 42 42 41 38 36 34 32 33 33 31 28 25 22 23 23 23 22 22 21 21 20 19 18 18 18 18 17 17 18 18 20 22 22 23 23 21 20 18
53 50 46 45 45 45 45 44 40 38 34 30 28 24 22 20 18 16 14 14 14 14 14 16 16 16 16 15 14 14 13 13 12 12 11 11 11 10 10 10 10 9 9 9
58 55 52 51 49 47 45 42 38 33 29 27 24 20 15 12 12 12 13 15 17 18 18 19 18 17 16 15 14 13 12 12 12 12 12 12 12 12 12 12 12 12 12 12
60 59 58 56 53 49 44 39 34 29 28 21 15 11 11 15 18 20 21 24 26 26 26 23 23 23 22 22 22 21 20 18 17 16 16 16 16 17 18 19 19 18 18 18
72 67 63 60 56 50 43 35 31 26 17 12 12 15 19 24 25 26 27 27 27 27 27 26 26 26 26 27 28 26 24 23 23 23 25 25 25 24 24 23 22 21 20 20

GFSNGP_500_rhum_105.txt.gz
RH
100 100 100 100 100 100 100 100 100 100 100 100 98 65 37 34 42 40 38 33 37 33 30 24 19 13 14 20 19 16 16 14 14 20 16 32 42 46 63 82 60 67 73 69
100 100 100 98 100 100 98 100 100 100 97 97 89 79 41 17 18 34 26 30 39 47 56 42 30 30 26 27 34 26 29 29 20 20 19 26 42 65 64 77 84 81 85 94
100 100 100 100 100 98 99 100 90 100 100 98 91 75 25 12 8 10 30 61 52 63 69 69 64 50 39 38 37 48 41 31 32 19 21 37 55 77 91 99 100 90 79 85
99 100 100 100 96 95 86 95 96 81 83 78 94 67 34 13 7 11 12 17 48 73 81 77 77 91 90 60 56 99 97 80 40 35 30 37 70 92 96 97 100 99 86 87
100 100 96 100 100 100 100 100 92 91 89 82 74 38 21 13 10 12 14 15 15 18 44 57 77 77 81 88 82 82 100 92 66 51 37 41 72 96 100 99 98 100 88 81
97 99 100 98 89 81 92 86 83 79 83 78 33 15 14 15 16 15 15 14 18 21 46 51 56 62 64 76 89 91 92 99 98 77 99 56 75 84 99 100 97 92 87 81
100 100 99 98 98 81 68 68 59 48 28 21 19 19 18 18 18 17 17 18 19 22 58 63 57 60 40 30 51 82 94 98 99 98 97 99 96 93 84 100 97 92 95 99
80 59 51 52 60 67 65 64 66 65 64 62 50 44 34 28 24 22 20 19 18 16 20 26 24 53 28 21 18 24 67 96 97 99 99 76 87 100 99 94 85 79 96 90
44 41 31 29 25 29 58 62 61 61 59 59 56 48 42 35 27 20 18 18 21 21 20 22 22 21 28 14 13 30 56 43 85 98 99 99 100 100 99 99 100 94 97 93
40 35 30 26 27 23 30 51 62 62 61 52 42 35 28 24 21 18 14 13 13 12 11 11 12 11 11 11 10 23 54 68 71 55 85 97 100 98 98 98 99 99 99 100
37 31 26 28 33 37 40 44 48 45 39 36 33 30 30 27 24 23 21 20 18 15 13 11 9 9 9 14 25 37 46 73 80 74 66 56 68 89 94 100 100 100 100 99
44 40 36 38 40 40 38 33 36 38 41 51 58 56 50 48 47 45 45 40 35 32 29 24 24 21 18 12 24 56 78 86 88 93 92 84 76 66 62 68 75 91 97 99
44 44 45 44 41 37 34 36 36 57 77 87 100 94 73 68 67 63 61 53 50 45 39 35 34 34 33 29 21 21 29 48 72 77 79 76 72 72 68 64 64 68 74 86
46 43 42 37 39 39 38 49 88 94 100 100 94 99 100 100 95 87 82 65 56 50 45 44 43 40 40 43 38 36 39 39 42 55 70 77 82 74 72 70 65 70 77 74
51 46 48 67 66 85 91 100 100 100 99 99 98 98 94 96 94 91 87 69 53 49 46 42 40 38 36 38 41 43 44 41 45 52 60 68 74 78 90 94 96 100 100 100
42 50 54 61 75 93 94 93 94 92 88 83 77 71 63 58 57 58 58 62 64 61 54 51 49 46 40 33 30 30 30 26 28 31 34 36 40 47 60 70 82 94 99 100
58 61 47 48 56 62 73 72 78 85 82 76 73 73 70 54 42 40 45 43 41 40 39 39 38 35 32 34 34 32 31 38 44 46 39 34 35 36 43 45 39 38 42 49
86 83 70 53 46 40 31 27 27 31 30 28 27 26 35 35 32 35 39 42 44 42 45 47 49 46 42 39 41 43 41 44 44 39 35 36 36 32 30 33 34 34 34 34
87 81 76 70 61 55 47 45 49 54 57 58 57 56 53 48 43 38 36 36 37 39 40 42 45 47 49 52 54 56 57 57 57 57 56 53 48 43 39 36 41 43 44 43
99 99 93 80 68 60 55 52 50 46 41 38 37 36 32 29 27 26 27 28 27 27 32 41 42 46 47 46 46 46 46 47 48 48 48 48 48 48 48 48 47 46 44 42
74 65 62 60 54 47 42 41 40 38 36 34 33 32 32 33 32 29 27 28 29 28 30 30 28 29 31 35 41 46 48 48 46 46 46 45 44 44 44 44 44 44 45 45
64 50 45 46 47 45 42 40 39 39 40 39 38 36 34 32 28 26 26 25 24 23 22 21 20 19 19 20 21 23 24 28 32 36 38 39 39 38 37 36 35 33 32 33
50 53 55 54 52 48 45 46 46 47 46 44 40 36 33 28 25 23 23 22 19 16 12 11 11 11 11 12 12 12 14 17 19 20 20 20 19 18 18 17 16 15 15 15
61 59 58 56 56 57 56 55 55 54 50 45 41 34 28 26 22 16 12 11 12 12 14 17 18 17 17 18 18 17 17 17 16 15 15 14 14 14 13 13 12 12 11 11
71 73 72 74 76 75 70 66 61 55 49 43 35 30 26 18 11 10 11 14 18 21 23 23 24 24 23 24 24 23 22 21 20 19 18 18 17 16 15 15 15 14 15 15
80 80 76 70 72 72 68 64 59 51 45 37 31 26 19 11 10 13 19 22 23 28 29 30 28 27 25 26 27 27 27 26 27 28 27 26 24 22 21 20 20 20 20 21
82 76 70 67 69 72 71 67 57 51 41 34 27 17 11 10 14 23 25 25 24 24 28 30 32 32 30 28 29 30 31 31 34 34 32 28 26 26 27 27 27 27 27 27

GFSNGP_500_rhum_108.txt.gz
RH
100 98 99 99 100 100 100 100 100 99 99 98 100 98 99 100 76 47 40 38 33 30 26 30 28 23 20 24 25 23 22 19 20 23 30 33 46 51 63 47 38 44 44 57
100 91 88 100 100 100 100 100 100 100 100 99 90 72 41 22 25 27 30 34 32 30 33 32 35 33 25 20 17 18 21 21 25 30 24 24 26 32 39 50 59 62 57 55
100 100 99 100 100 100 100 100 100 100 97 87 95 71 37 17 10 10 13 27 50 49 57 64 58 51 48 41 28 24 25 26 31 42 61 24 28 94 66 97 97 86 72 71
100 98 100 100 100 100 100 100 99 98 90 81 76 80 47 29 13 8 11 13 14 35 55 68 76 79 77 73 67 51 45 43 41 43 55 33 23 41 92 78 48 66 76 95
100 100 95 95 100 96 91 95 92 88 78 85 87 90 66 45 23 11 11 14 15 15 15 21 47 60 69 78 93 94 78 44 72 96 88 68 43 33 78 44 98 69 68 85
100 100 100 97 100 100 100 98 94 96 96 85 82 73 44 25 16 14 16 16 17 18 19 23 31 48 51 56 65 74 82 80 75 71 95 91 98 68 93 70 100 52 99 68
100 100 98 91 98 93 77 73 75 69 68 49 38 41 32 21 19 20 20 20 19 19 18 20 40 37 48 34 26 30 27 46 76 91 100 100 96 80 94 99 100 95 97 98
100 96 92 87 66 66 66 62 66 66 64 62 56 47 41 39 37 34 31 28 24 21 20 20 19 19 18 18 17 15 13 12 14 69 92 97 98 99 90 99 98 98 98 99
75 74 59 34 28 26 25 36 56 59 61 60 59 59 59 58 54 51 46 39 30 23 25 28 27 25 21 18 18 18 17 15 30 37 34 53 99 99 98 99 99 100 100 99
63 40 33 31 25 23 21 23 31 40 52 58 59 59 54 48 44 39 33 28 24 22 19 14 14 13 13 11 10 12 14 15 20 53 66 74 52 77 96 99 100 98 100 99
54 47 36 28 22 21 22 28 36 39 42 46 47 45 43 39 32 26 22 22 20 20 19 16 15 16 14 12 12 12 10 10 16 29 61 79 75 77 76 78 94 97 96 98
50 39 34 26 26 27 29 36 38 39 38 41 43 45 47 50 54 53 46 43 42 40 38 38 37 33 30 26 21 17 14 12 10 9 13 46 77 90 84 76 77 72 67 73
49 42 34 34 36 33 36 36 38 37 38 36 43 56 74 86 90 86 81 78 69 64 61 55 49 43 38 36 38 34 30 24 18 15 14 13 14 28 48 63 67 64 68 70
53 46 43 45 43 38 42 41 40 52 62 64 79 81 84 89 93 93 90 90 90 90 87 78 66 59 54 49 45 43 39 35 32 28 27 28 29 32 40 47 63 74 75 74
56 59 63 50 44 46 49 64 74 68 86 92 81 80 76 75 69 63 59 55 54 56 56 53 51 51 51 49 45 42 43 42 39 35 33 32 33 32 33 34 40 51 66 73
43 44 47 44 44 43 43 44 58 60 65 72 66 54 56 48 42 37 41 52 51 36 28 30 36 39 38 36 35 32 32 33 32 32 33 32 28 28 31 32 32 30 31 34
43 44 40 29 25 21 21 22 23 21 18 16 18 22 22 25 28 34 43 43 45 48 47 42 38 36 34 34 36 38 39 38 35 35 36 36 32 29 27 24 26 32 35 37
74 73 72 66 56 50 44 41 31 27 29 34 43 50 53 52 48 44 40 35 32 29 28 26 24 22 22 22 23 24 29 34 38 42 45 48 51 55 54 48 41 37 38 34
100 98 91 92 91 86 79 70 61 57 54 51 46 41 37 35 34 34 33 31 28 26 27 26 26 23 21 20 19 20 22 25 28 34 40 44 44 46 49 50 52 53 53 53
91 90 90 83 73 68 63 56 48 43 40 38 38 38 37 36 35 35 35 35 33 32 31 28 26 24 22 21 21 21 21 22 23 25 27 33 41 49 50 50 52 53 52 50
72 72 67 54 47 45 45 45 43 41 39 39 39 41 43 46 48 46 42 38 35 31 28 25 23 22 21 19 18 18 18 18 19 20 20 20 22 28 35 42 46 49 50 50
50 48 49 53 56 54 51 50 51 55 57 58 60 60 59 56 51 45 40 35 30 27 25 23 19 14 11 10 10 9 9 10 10 10 11 12 13 15 18 22 24 26 27 28
58 62 63 65 65 67 70 70 66 63 63 66 65 62 58 52 44 40 34 30 26 23 17 12 10 11 13 17 18 18 18 18 17 16 16 15 15 15 16 16 17 19 20 21
66 72 77 78 79 75 66 56 54 56 59 64 66 62 55 50 43 35 30 26 20 13 11 13 17 21 24 26 26 25 23 22 20 21 21 21 21 21 20 19 18 17 16 16
83 83 82 78 72 65 58 58 64 71 71 68 67 61 55 47 38 31 25 17 12 12 18 23 25 25 25 27 31 31 29 26 24 25 25 25 25 25 26 27 26 24 23 22
84 78 74 72 69 65 65 65 65 64 65 66 64 58 52 42 34 26 16 12 12 16 22 26 27 26 24 24 25 28 32 32 29 28 28 30 30 31 32 31 28 27 26 25
75 72 74 75 72 71 69 70 71 69 73 73 68 56 45 37 26 16 13 14 15 16 21 25 28 28 27 25 25 25 30 35 34 33 33 34 35 37 40 38 34 30 29 29

GFSNGP_500_rhum_114.txt.gz
RH
72 61 61 99 100 99 90 94 100 100 100 98 100 100 100 100 100 100 100 99 98 94 86 88 88 60 50 52 60 72 76 79 85 77 59 55 65 84 89 84 87 87 88 93
76 62 69 99 100 100 100 100 100 100 100 100 100 100 100 100 100 100 100 86 67 59 48 40 40 35 33 34 32 29 31 35 41 46 44 27 33 51 77 89 94 95 90 86
100 100 95 100 100 100 100 97 99 100 98 95 52 46 64 52 85 96 98 90 72 64 63 55 55 61 67 59 52 44 44 34 27 26 31 32 34 32 27 28 30 33 40 45
100 100 100 100 100 100 100 100 100 100 100 100 92 52 20 15 26 37 42 38 49 46 33 29 38 46 54 60 64 68 73 71 59 39 28 24 24 28 27 26 26 83 79 42
100 100 100 99 99 97 100 100 100 100 100 100 92 88 75 51 28 13 12 15 19 20 24 27 26 22 23 31 45 42 62 66 71 80 73 46 36 37 37 41 36 90 99 53
98 93 100 99 97 93 96 100 98 98 95 99 96 93 93 92 74 49 34 20 15 16 16 17 24 23 25 41 58 46 42 37 32 43 54 75 86 67 53 56 44 99 99 86
100 95 82 95 93 87 96 93 91 87 80 78 74 60 60 55 36 33 27 23 22 22 22 22 23 23 22 20 22 23 22 38 34 20 16 21 42 61 75 69 64 74 91 76
100 100 100 100 100 98 87 87 86 80 72 66 64 61 56 51 49 47 45 44 42 41 40 40 38 37 34 31 29 28 28 26 25 22 20 17 15 14 30 55 59 57 58 61
100 100 100 100 100 77 75 80 66 60 58 55 55 56 55 54 55 56 52 49 46 47 46 44 44 42 41 39 38 36 35 32 30 28 28 24 20 17 16 14 16 32 58 68
100 100 100 100 92 40 29 26 24 23 24 25 28 30 32 36 41 41 41 40 37 38 41 42 41 42 41 40 38 35 31 30 27 26 22 18 13 13 14 13 12 12 11 22
100 100 100 100 96 41 32 28 26 22 22 23 23 23 24 26 28 30 31 31 30 32 33 35 35 36 36 35 28 26 22 18 17 18 19 16 13 13 14 13 11 10 9 9
100 100 100 98 76 51 40 31 26 20 18 16 16 17 16 17 19 24 31 33 35 36 36 35 37 38 38 37 36 34 31 27 24 20 18 16 14 13 14 14 13 12 11 10
100 100 100 94 66 49 41 31 25 23 20 19 17 16 15 15 16 20 23 28 33 35 38 38 38 37 33 35 37 38 39 36 33 31 27 26 26 24 21 18 18 17 16 14
100 100 97 72 56 48 40 31 26 22 22 23 26 26 25 27 29 32 33 33 34 34 32 27 23 21 19 17 14 13 11 10 11 11 12 14 15 18 18 19 18 19 22 22
98 85 70 58 52 44 37 30 28 28 28 30 34 37 38 39 38 31 24 18 13 10 10 13 16 17 20 22 22 22 21 20 20 21 21 20 19 18 18 18 18 18 19 21
60 53 43 39 38 35 32 30 27 26 24 21 20 19 18 16 12 11 12 15 23 33 37 36 34 30 28 26 24 23 22 22 20 19 17 16 16 15 14 14 14 14 14 14
34 35 31 27 22 20 20 16 15 14 13 12 11 13 15 19 28 36 39 38 34 31 30 30 31 33 34 36 37 39 41 43 43 42 38 36 34 31 28 24 23 24 23 22
43 42 36 33 28 26 23 21 19 23 32 41 43 41 38 34 32 32 34 39 44 49 53 54 55 55 54 53 51 49 47 46 45 44 42 39 37 35 33 32 30 28 26 24
73 72 70 60 48 46 49 50 47 43 42 41 41 43 46 51 56 56 52 46 43 43 44 43 42 42 42 42 42 42 42 41 38 36 35 34 33 31 30 28 26 24 23 22
85 85 79 69 58 50 46 46 48 52 56 61 64 64 59 51 45 43 42 42 43 43 42 42 41 40 38 37 36 36 36 35 33 31 28 25 23 22 20 19 18 17 16 15
79 66 56 53 58 58 61 68 71 68 62 56 50 46 45 44 43 42 43 43 42 42 42 42 41 39 38 39 38 35 32 29 26 21 17 13 11 10 10 10 10 10 11 10
56 60 65 66 72 80 75 67 58 52 49 48 48 48 47 46 45 44 43 44 45 46 43 40 38 38 37 38 36 28 20 16 14 13 13 14 16 17 19 21 21 21 20 20
69 68 74 85 83 74 61 54 49 47 49 50 50 50 49 49 48 48 53 55 55 51 44 38 36 35 32 23 17 16 15 16 18 18 16 18 25 26 24 22 22 25 28 26
66 78 88 84 70 59 52 38 32 34 41 51 54 55 56 58 60 56 59 58 50 43 39 32 24 18 16 17 19 22 24 25 28 30 26 22 22 26 25 23 22 25 30 31
70 83 85 68 54 45 34 30 32 35 37 52 61 60 62 62 64 70 63 50 42 32 22 16 17 19 22 24 25 26 27 27 28 32 36 34 28 27 29 28 25 24 32 34
76 85 79 66 59 47 34 38 53 49 45 59 69 70 71 73 76 66 50 38 23 15 16 19 23 25 27 30 34 37 38 37 34 31 32 38 40 35 34 35 34 31 34 38
83 86 80 67 48 34 40 68 73 54 52 64 76 77 77 82 70 51 33 17 14 17 22 24 29 36 41 44 45 46 46 45 45 46 46 41 38 43 43 40 41 42 40 41